User: anonymous   Login
Location: Unspecified
(0.0000°N, 0.0000°E)
Time: 14:31:14
(UTC+00:00)
Language:

Radcal - Orbit

View from above orbital plane
View from above orbital plane
View from above satellite
View from above satellite

Ground track
Ground track

The orbit data is extracted from the following two-line orbital elements,

1 22698U 93041A   17084.93801002 +.00000037 +00000-0 +97540-5 0  9997
2 22698 089.5441 237.4561 0090667 045.9501 314.9112 14.23340527232717
Epoch (UTC): 25 March 2017 22:30:44
Eccentricity: 0.0090667
inclination: 89.5441°
perigee height: 749 km
apogee height: 879 km
right ascension of ascending node: 237.4561°
argument of perigee: 45.9501°
revolutions per day: 14.23340527
mean anomaly at epoch: 314.9112°
orbit number at epoch: 23271

The dashed part of the orbit path shows where the satellite is in the earth's shadow,  

DLR